STARLINK-33792, 63506

Orbit data source: Space-Track

STARLINK-33792, 63506 is a payload satellite owned by SpaceX/Seattle (US) in LEO that was launched on Mon, 07 Apr 2025 UTC via an FALCON 9 launch vehicle from the Air Force Western Test Range (AFWTR). Payload-class satellites include a variety of spacecraft equipped with specific instruments for various scientific and technological missions. These include communications satellites like Starlink; space stations such as the ISS; scientific satellites like the Hubble; Earth observation satellites from companies like Planet Labs, Umbra, and HawkEye 360; GPS; miniature CubeSats for education and research; and military/defense satellites.

Loading next visibility...
Identifier
63506, 2025-071P
Orbit
LEO
Last TLE update
2 days ago
Origin
Manufacturer
SpaceX/Seattle
Mission
Operational spacecraft
Bus & Motor
STARLINK V2MO, Unknown motor
Mass
575 kg wet, ~530 kg dry
Launch date (UTC)
2025-04-07 (3 weeks ago)
Launch vehicle
FALCON 9
Launch site
Air Force Western Test Range (AFWTR)
Object type
Payload
Rocket body
Debris
Shape & HBR
Unknown
Radar Cross Section
Large (>1 m²)

Expand to show TLE details & history

TLE from 2 days ago
0 STARLINK-33792
1 63506U 25071P   25118.91668981 -.01455123  00000-0 -19499-1 0  9996
2 63506  53.1591 167.8908 0000916  79.8191 293.0739 15.60314834  4479
Epoch: 2025-04-28T22:00Z
Definitive object data (Epoch: 2025-04-28T22:00:01.999Z)
Latitude
10.2628°
Longitude
-11.48893°
Altitude
386.663 km
Speed
7.68 km/s
True Right ascension
11h 42m 34s
True Declination
10° 11' 58"
Sunlit
Object was in full shadow at TLE epoch
Visualization TLE readout
Latitude
-19.70868°
Longitude
-42.14642°
Altitude
405.704 km
Speed
7.667 km/s
Apparent Right ascension
08h 14m 40s
Apparent Declination
-31° 43' 19"
Sunlit
Object is in full shadow
Visualization observer readout
Local Sidereal Time
18:21:27
Azimuth
280.848° WNW
Elevation
-65.756°
Doppler factor
1
Orbital elements
Apogee altitude
387.626 km
Perigee altitude
386.387 km
Semi-major axis
6,765.144 km
Eccentricity
0.0000916
Inclination
53.1591°
RAAN
167.8908°
Arg. of periapsis
79.8191°
True anomaly
293.06424°
Mean anomaly
293.0739°
Eccentric anomaly
293.06907°
Mean motion
3.90057 °/min
BSTAR
-0.019499
Orbital period
92.29 mins
Loading maneuver chart data...
Loading SW <> Apogee altitude chart data...
Loading historical data...
Loading historical data...
Loading historical data...
Loading historical data...
Loading historical data...
Loading historical data...
Loading historical data...

STARLINK-33792 Visibility forecast

Observer location: undefined°, undefined°

Span
Click to sort rows by Start time (UTC) header in descending order
Start Az.
Max El. time (UTC)
Max El. Az.
Max El.
End time (UTC)
End Az.
4 mins2025-04-30 11:21:23.897Z340.056° N2025-04-30 11:23:23.897Z25.14° NE20.713°2025-04-30 11:25:23.897Z73.367° E
4 mins2025-04-30 12:58:23.897Z281.713° WNW2025-04-30 12:59:23.897Z251.28° W31.905°2025-04-30 13:02:23.897Z156.451° SSE
4 mins2025-05-01 05:37:23.897Z249.361° W2025-05-01 05:38:23.897Z279.277° WNW39.593°2025-05-01 05:41:23.897Z42.568° NE
|